| time (UTC) | temp C | wind direction | speed KPH | gust KPH | rain 1hr cm | rain 24hr cm | rain mn cm | humidity % | barometer mb |
| 20260506221604 | 7 | 2 | 0.0 | 9.7 | 0.00 | 0.00 | 0.00 | 94 | 1011.4 |
| 20260506221116 | 7 | 2 | 0.0 | 9.7 | 0.00 | 0.00 | 0.00 | 94 | 1011.4 |
| 20260506220626 | 7 | 328 | 0.0 | 12.9 | 0.05 | 0.00 | 0.00 | 94 | 1011.4 |
| 20260506220213 | 7 | 322 | 0.0 | 11.3 | 0.05 | 0.00 | 0.00 | 94 | 1011.3 |
| 20260506215806 | 7 | 343 | 0.0 | 14.5 | 0.08 | 0.00 | 0.00 | 94 | 1011.3 |
| 20260506215331 | 7 | 329 | 0.0 | 11.3 | 0.05 | 0.00 | 0.00 | 94 | 1011.3 |
| 20260506214911 | 7 | 347 | 0.0 | 14.5 | 0.03 | 0.00 | 0.00 | 94 | 1011.2 |
| 20260506214451 | 7 | 8 | 0.0 | 14.5 | 0.00 | 0.00 | 0.00 | 94 | 1011.3 |
| 20260506214016 | 7 | 339 | 0.0 | 11.3 | 0.00 | 0.00 | 0.00 | 94 | 1011.3 |
| 20260506213541 | 7 | 337 | 0.0 | 9.7 | 0.00 | 0.00 | 0.00 | 94 | 1011.2 |
| 20260506213116 | 7 | 337 | 0.0 | 9.7 | 0.00 | 0.00 | 0.00 | 94 | 1011.2 |
| 20260506212706 | 7 | 2 | 0.0 | 14.5 | 0.00 | 0.00 | 0.00 | 94 | 1011.3 |
| 20260506212256 | 7 | 16 | 0.0 | 14.5 | 0.00 | 0.00 | 0.00 | 94 | 1011.3 |
| 20260506211811 | 7 | 336 | 0.0 | 9.7 | 0.00 | 0.00 | 0.00 | 94 | 1011.2 |
| 20260506211352 | 7 | 350 | 0.0 | 4.8 | 0.00 | 0.00 | 0.00 | 94 | 1011.2 |
| 20260506210931 | 7 | 2 | 0.0 | 4.8 | 0.00 | 0.00 | 0.00 | 94 | 1011.2 |
| 20260506210516 | 7 | 333 | 0.0 | 11.3 | 0.00 | 0.00 | 0.00 | 94 | 1011.1 |
| 20260506210041 | 7 | 333 | 0.0 | 11.3 | 0.00 | 0.00 | 0.00 | 94 | 1011.1 |
| 20260506205631 | 7 | 326 | 0.0 | 14.5 | 0.00 | 0.00 | 0.00 | 94 | 1011.1 |
| 20260506205153 | 7 | 350 | 0.0 | 9.7 | 0.00 | 0.00 | 0.00 | 94 | 1011.1 |
| 20260506204731 | 7 | 351 | 0.0 | 9.7 | 0.00 | 0.00 | 0.00 | 94 | 1011.1 |
| 20260506204256 | 7 | 17 | 0.0 | 9.7 | 0.00 | 0.00 | 0.00 | 94 | 1011.0 |
| 20260506203757 | 7 | 331 | 0.0 | 4.8 | 0.00 | 0.00 | 0.00 | 94 | 1011.0 |
| 20260506203316 | 7 | 14 | 0.0 | 6.4 | 0.00 | 0.00 | 0.00 | 94 | 1011.0 |
| 20260506202827 | 7 | 358 | 0.0 | 4.8 | 0.00 | 0.00 | 0.00 | 94 | 1011.0 |
| 20260506202401 | 7 | 324 | 0.0 | 6.4 | 0.00 | 0.00 | 0.00 | 94 | 1011.0 |
| 20260506201936 | 7 | 330 | 0.0 | 6.4 | 0.00 | 0.00 | 0.00 | 94 | 1010.8 |
| 20260506201456 | 7 | 334 | 0.0 | 6.4 | 0.00 | 0.00 | 0.00 | 94 | 1010.9 |
| 20260506201026 | 7 | 337 | 0.0 | 6.4 | 0.00 | 0.00 | 0.00 | 94 | 1010.8 |
| 20260506200611 | 7 | 337 | 0.0 | 6.4 | 0.00 | 0.00 | 0.00 | 94 | 1010.8 |
| 20260506200141 | 7 | 347 | 0.0 | 6.4 | 0.00 | 0.00 | 0.00 | 94 | 1010.8 |
| 20260506195701 | 7 | 325 | 0.0 | 9.7 | 0.00 | 0.00 | 0.00 | 94 | 1010.8 |
| 20260506195241 | 7 | 344 | 0.0 | 6.4 | 0.00 | 0.00 | 0.00 | 94 | 1010.7 |
| 20260506194821 | 7 | 325 | 0.0 | 11.3 | 0.00 | 0.00 | 0.00 | 94 | 1010.7 |
| 20260506194356 | 7 | 340 | 0.0 | 11.3 | 0.00 | 0.00 | 0.00 | 94 | 1010.7 |
| 20260506193926 | 7 | 15 | 0.0 | 4.8 | 0.00 | 0.00 | 0.00 | 94 | 1010.7 |
| 20260506193451 | 7 | 353 | 0.0 | 6.4 | 0.00 | 0.00 | 0.00 | 94 | 1010.6 |
| 20260506193022 | 7 | 355 | 0.0 | 4.8 | 0.00 | 0.00 | 0.00 | 94 | 1010.6 |
| 20260506192611 | 7 | 355 | 0.0 | 4.8 | 0.00 | 0.00 | 0.00 | 94 | 1010.6 |
| 20260506192141 | 7 | 5 | 0.0 | 4.8 | 0.00 | 0.00 | 0.00 | 94 | 1010.5 |
| 20260506191721 | 7 | 10 | 0.0 | 6.4 | 0.00 | 0.00 | 0.00 | 94 | 1010.4 |
| 20260506191301 | 7 | 357 | 0.0 | 9.7 | 0.00 | 0.00 | 0.00 | 94 | 1010.4 |
| 20260506190851 | 7 | 320 | 0.0 | 6.4 | 0.00 | 0.00 | 0.00 | 94 | 1010.4 |
| 20260506190431 | 7 | 15 | 0.0 | 4.8 | 0.00 | 0.00 | 0.00 | 94 | 1010.4 |
| 20260506185941 | 7 | 347 | 0.0 | 9.7 | 0.00 | 0.00 | 0.00 | 94 | 1010.3 |
| 20260506185526 | 7 | 352 | 0.0 | 9.7 | 0.00 | 0.00 | 0.00 | 94 | 1010.3 |
| 20260506185106 | 7 | 352 | 0.0 | 9.7 | 0.00 | 0.00 | 0.00 | 94 | 1010.3 |
| 20260506184621 | 7 | 340 | 0.0 | 9.7 | 0.00 | 0.00 | 0.00 | 94 | 1010.2 |
| 20260506184131 | 7 | 346 | 0.0 | 6.4 | 0.00 | 0.00 | 0.00 | 94 | 1010.2 |
| 20260506183711 | 7 | 3 | 0.0 | 1.6 | 0.00 | 0.00 | 0.00 | 94 | 1010.2 |
| 20260506183231 | 7 | 0.0 | 4.8 | 0.00 | 0.00 | 0.00 | 94 | 1010.1 | |
| 20260506182801 | 7 | 339 | 0.0 | 9.7 | 0.00 | 0.00 | 0.00 | 93 | 1010.0 |
| 20260506182321 | 7 | 10 | 0.0 | 9.7 | 0.00 | 0.00 | 0.00 | 93 | 1010.0 |
| 20260506181846 | 7 | 347 | 0.0 | 12.9 | 0.00 | 0.00 | 0.00 | 93 | 1010.0 |
| 20260506181426 | 7 | 22 | 0.0 | 9.7 | 0.00 | 0.00 | 0.00 | 93 | 1009.9 |
| 20260506181003 | 7 | 332 | 0.0 | 6.4 | 0.00 | 0.00 | 0.00 | 93 | 1009.9 |
| 20260506180531 | 7 | 339 | 0.0 | 9.7 | 0.00 | 0.00 | 0.00 | 93 | 1009.8 |
| 20260506180126 | 7 | 339 | 0.0 | 9.7 | 0.00 | 0.00 | 0.00 | 93 | 1009.8 |
| 20260506175701 | 7 | 7 | 0.0 | 11.3 | 0.00 | 0.00 | 0.00 | 93 | 1009.8 |
| 20260506175236 | 7 | 319 | 0.0 | 11.3 | 0.00 | 0.00 | 0.00 | 93 | 1009.5 |
| 20260506174751 | 7 | 351 | 0.0 | 11.3 | 0.00 | 0.00 | 0.00 | 93 | 1009.5 |
| 20260506174321 | 7 | 1 | 0.0 | 12.9 | 0.05 | 0.00 | 0.00 | 93 | 1009.5 |
| 20260506173841 | 7 | 8 | 0.0 | 11.3 | 0.05 | 0.00 | 0.00 | 93 | 1009.5 |
| 20260506173431 | 8 | 360 | 0.0 | 11.3 | 0.03 | 0.00 | 0.00 | 93 | 1009.4 |
| 20260506173001 | 8 | 9 | 0.0 | 11.3 | 0.00 | 0.00 | 0.00 | 93 | 1009.4 |
| 20260506172516 | 8 | 353 | 0.0 | 11.3 | 0.00 | 0.00 | 0.00 | 93 | 1009.3 |
| 20260506172046 | 8 | 343 | 0.0 | 9.7 | 0.03 | 0.00 | 0.00 | 93 | 1009.3 |
| 20260506171613 | 8 | 343 | 0.0 | 9.7 | 0.03 | 0.00 | 0.00 | 93 | 1009.3 |
| 20260506171146 | 8 | 345 | 0.0 | 6.4 | 0.05 | 0.00 | 0.00 | 93 | 1009.3 |
| 20260506170721 | 8 | 8 | 0.0 | 6.4 | 0.05 | 0.00 | 0.00 | 93 | 1009.3 |
| 20260506170306 | 8 | 29 | 0.0 | 12.9 | 0.05 | 0.00 | 0.00 | 93 | 1009.3 |
| 20260506165833 | 8 | 348 | 0.0 | 6.4 | 0.08 | 0.00 | 0.00 | 93 | 1009.3 |
| 20260506165411 | 8 | 351 | 0.0 | 9.7 | 0.05 | 0.00 | 0.00 | 93 | 1009.3 |
| 20260506165001 | 8 | 360 | 0.0 | 11.3 | 0.08 | 0.00 | 0.00 | 93 | 1009.2 |
| 20260506164531 | 8 | 356 | 0.0 | 6.4 | 0.05 | 0.00 | 0.00 | 93 | 1009.2 |
| 20260506164051 | 8 | 356 | 0.0 | 6.4 | 0.05 | 0.00 | 0.00 | 93 | 1009.2 |
| 20260506163606 | 8 | 75 | 0.0 | 6.4 | 0.08 | 0.00 | 0.00 | 93 | 1009.2 |
| 20260506163146 | 8 | 8 | 0.0 | 9.7 | 0.05 | 0.00 | 0.00 | 93 | 1009.2 |
| 20260506162716 | 8 | 19 | 0.0 | 9.7 | 0.05 | 0.00 | 0.00 | 93 | 1009.1 |
| 20260506162231 | 8 | 323 | 0.0 | 9.7 | 0.05 | 0.00 | 0.00 | 93 | 1009.1 |
| 20260506161821 | 8 | 33 | 0.0 | 12.9 | 0.08 | 0.00 | 0.00 | 93 | 1009.1 |
| 20260506161413 | 8 | 26 | 0.0 | 12.9 | 0.08 | 0.00 | 0.00 | 93 | 1009.2 |
| 20260506160926 | 8 | 3 | 0.0 | 4.8 | 0.08 | 0.00 | 0.00 | 93 | 1009.1 |
| 20260506160441 | 8 | 19 | 0.0 | 12.9 | 0.10 | 0.00 | 0.00 | 93 | 1009.0 |
| 20260506160006 | 8 | 22 | 0.0 | 12.9 | 0.10 | 0.00 | 0.00 | 93 | 1009.0 |
| 20260506155551 | 8 | 22 | 0.0 | 12.9 | 0.10 | 0.00 | 0.00 | 93 | 1009.0 |
| 20260506155101 | 8 | 349 | 0.0 | 9.7 | 0.13 | 0.00 | 0.00 | 93 | 1009.1 |
| 20260506154646 | 8 | 349 | 0.0 | 9.7 | 0.13 | 0.00 | 0.00 | 93 | 1009.1 |
| 20260506154201 | 8 | 15 | 0.0 | 6.4 | 0.13 | 0.00 | 0.00 | 93 | 1009.1 |
| 20260506153731 | 8 | 6 | 0.0 | 16.1 | 0.13 | 0.00 | 0.00 | 93 | 1009.0 |
| 20260506153316 | 8 | 23 | 0.0 | 16.1 | 0.10 | 0.00 | 0.00 | 93 | 1009.1 |
| 20260506152846 | 8 | 6 | 0.0 | 12.9 | 0.10 | 0.00 | 0.00 | 93 | 1009.1 |
| 20260506152421 | 8 | 349 | 0.0 | 12.9 | 0.10 | 0.00 | 0.00 | 93 | 1009.1 |
| 20260506151941 | 8 | 347 | 0.0 | 12.9 | 0.13 | 0.00 | 0.00 | 93 | 1009.1 |
| 20260506151516 | 8 | 340 | 0.0 | 6.4 | 0.15 | 0.00 | 0.00 | 93 | 1009.1 |
| 20260506151042 | 8 | 350 | 0.0 | 24.1 | 0.18 | 0.00 | 0.00 | 93 | 1009.0 |
| 20260506150616 | 8 | 350 | 0.0 | 24.1 | 0.18 | 0.00 | 0.00 | 93 | 1009.0 |
| 20260506150146 | 8 | 6 | 0.0 | 14.5 | 0.18 | 0.00 | 0.00 | 93 | 1008.9 |
| 20260506145713 | 8 | 345 | 0.0 | 14.5 | 0.18 | 0.00 | 0.00 | 93 | 1008.9 |
| 20260506145257 | 8 | 335 | 0.0 | 6.4 | 0.18 | 0.00 | 0.00 | 93 | 1008.9 |
| 20260506144803 | 8 | 336 | 0.0 | 9.7 | 0.15 | 0.00 | 0.00 | 93 | 1008.9 |
| 20260506144326 | 8 | 9 | 0.0 | 11.3 | 0.15 | 0.00 | 0.00 | 93 | 1008.9 |
| 20260506143836 | 8 | 349 | 0.0 | 3.2 | 0.13 | 0.00 | 0.00 | 93 | 1008.9 |
| 20260506143356 | 8 | 357 | 0.0 | 9.7 | 0.15 | 0.00 | 0.00 | 93 | 1008.8 |
| 20260506142936 | 8 | 3 | 0.0 | 9.7 | 0.13 | 0.00 | 0.00 | 93 | 1008.9 |
| 20260506142451 | 8 | 3 | 0.0 | 11.3 | 0.15 | 0.00 | 0.00 | 93 | 1009.0 |
| 20260506142011 | 8 | 350 | 0.0 | 9.7 | 0.10 | 0.00 | 0.00 | 93 | 1008.9 |
| 20260506141537 | 8 | 352 | 0.0 | 6.4 | 0.10 | 0.00 | 0.00 | 93 | 1008.9 |
| 20260506141056 | 8 | 10 | 0.0 | 11.3 | 0.10 | 0.00 | 0.00 | 93 | 1008.9 |
| 20260506140632 | 8 | 10 | 0.0 | 11.3 | 0.10 | 0.00 | 0.00 | 93 | 1008.9 |
| 20260506140201 | 8 | 4 | 0.0 | 6.4 | 0.10 | 0.00 | 0.00 | 93 | 1008.8 |
| 20260506135736 | 8 | 16 | 0.0 | 11.3 | 0.10 | 0.00 | 0.00 | 93 | 1008.9 |
| 20260506135306 | 8 | 353 | 0.0 | 12.9 | 0.08 | 0.00 | 0.00 | 93 | 1008.9 |
| 20260506134816 | 8 | 332 | 0.0 | 11.3 | 0.08 | 0.00 | 0.00 | 93 | 1008.9 |
| 20260506134405 | 8 | 21 | 0.0 | 12.9 | 0.08 | 0.00 | 0.00 | 93 | 1008.7 |
| 20260506133936 | 8 | 19 | 0.0 | 12.9 | 0.08 | 0.00 | 0.00 | 93 | 1008.8 |
| 20260506133506 | 8 | 342 | 0.0 | 12.9 | 0.08 | 0.00 | 0.00 | 93 | 1008.7 |
| 20260506133046 | 8 | 342 | 0.0 | 12.9 | 0.08 | 0.00 | 0.00 | 93 | 1008.7 |
| 20260506132606 | 8 | 28 | 0.0 | 6.4 | 0.05 | 0.00 | 0.00 | 93 | 1008.7 |
| 20260506132131 | 8 | 28 | 0.0 | 6.4 | 0.05 | 0.00 | 0.00 | 93 | 1008.7 |
| 20260506131641 | 8 | 43 | 0.0 | 9.7 | 0.08 | 0.00 | 0.00 | 93 | 1008.7 |
| 20260506131156 | 8 | 352 | 0.0 | 11.3 | 0.05 | 0.00 | 0.00 | 93 | 1008.7 |
| 20260506130743 | 8 | 356 | 0.0 | 4.8 | 0.03 | 0.00 | 0.00 | 93 | 1008.7 |
| 20260506130306 | 8 | 5 | 0.0 | 4.8 | 0.05 | 0.00 | 0.00 | 93 | 1008.7 |
| 20260506125841 | 8 | 6 | 0.0 | 6.4 | 0.05 | 0.00 | 0.00 | 93 | 1008.6 |
| 20260506125411 | 8 | 344 | 0.0 | 4.8 | 0.08 | 0.00 | 0.00 | 93 | 1008.5 |
| 20260506124936 | 8 | 6 | 0.0 | 9.7 | 0.05 | 0.00 | 0.00 | 93 | 1008.4 |
| 20260506124531 | 8 | 6 | 0.0 | 12.9 | 0.08 | 0.00 | 0.00 | 93 | 1008.4 |
| 20260506124051 | 8 | 6 | 0.0 | 12.9 | 0.08 | 0.00 | 0.00 | 93 | 1008.4 |
| 20260506123610 | 8 | 11 | 0.0 | 9.7 | 0.05 | 0.00 | 0.00 | 93 | 1008.5 |
| 20260506123136 | 8 | 2 | 0.0 | 9.7 | 0.08 | 0.00 | 0.00 | 93 | 1008.5 |
| 20260506122701 | 8 | 348 | 0.0 | 4.8 | 0.05 | 0.00 | 0.00 | 93 | 1008.6 |
| 20260506122231 | 8 | 337 | 0.0 | 6.4 | 0.05 | 0.00 | 0.00 | 93 | 1008.5 |
| 20260506121806 | 8 | 358 | 0.0 | 4.8 | 0.05 | 0.00 | 0.00 | 93 | 1008.4 |
| 20260506121336 | 8 | 341 | 0.0 | 9.7 | 0.08 | 0.00 | 0.00 | 93 | 1008.3 |
| 20260506120911 | 8 | 22 | 0.0 | 6.4 | 0.05 | 0.00 | 0.00 | 93 | 1008.1 |
| 20260506120441 | 8 | 343 | 0.0 | 11.3 | 0.08 | 0.00 | 0.00 | 93 | 1008.2 |
| 20260506120021 | 8 | 354 | 0.0 | 6.4 | 0.05 | 0.00 | 0.00 | 93 | 1008.3 |
| 20260506115546 | 8 | 354 | 0.0 | 6.4 | 0.05 | 0.00 | 0.00 | 93 | 1008.3 |
| 20260506115106 | 8 | 32 | 0.0 | 6.4 | 0.05 | 0.00 | 0.00 | 93 | 1008.3 |
| 20260506114703 | 8 | 32 | 0.0 | 6.4 | 0.05 | 0.00 | 0.00 | 93 | 1008.3 |
| 20260506114221 | 8 | 350 | 0.0 | 11.3 | 0.03 | 0.00 | 0.00 | 93 | 1008.3 |
| 20260506113741 | 8 | 5 | 0.0 | 14.5 | 0.03 | 0.00 | 0.00 | 93 | 1008.1 |
| 20260506113306 | 8 | 63 | 0.0 | 11.3 | 0.00 | 0.00 | 0.00 | 94 | 1008.2 |
| 20260506112846 | 8 | 360 | 0.0 | 11.3 | 0.05 | 0.00 | 0.00 | 94 | 1008.1 |
| 20260506112413 | 8 | 27 | 0.0 | 11.3 | 0.05 | 0.00 | 0.00 | 94 | 1008.2 |
| 20260506111951 | 8 | 349 | 0.0 | 12.9 | 0.03 | 0.00 | 0.00 | 94 | 1008.0 |
| 20260506111526 | 8 | 11 | 0.0 | 12.9 | 0.03 | 0.00 | 0.00 | 94 | 1008.2 |
| 20260506111036 | 8 | 358 | 0.0 | 14.5 | 0.05 | 0.00 | 0.00 | 94 | 1008.2 |
| 20260506110606 | 8 | 358 | 0.0 | 14.5 | 0.05 | 0.00 | 0.00 | 94 | 1008.2 |
| 20260506110136 | 8 | 35 | 0.0 | 6.4 | 0.05 | 0.00 | 0.00 | 94 | 1008.2 |
| 20260506105646 | 8 | 340 | 0.0 | 9.7 | 0.08 | 0.00 | 0.00 | 94 | 1008.2 |
| 20260506105241 | 8 | 21 | 0.0 | 14.5 | 0.08 | 0.00 | 0.00 | 94 | 1008.3 |
| 20260506104811 | 7 | 345 | 0.0 | 6.4 | 0.10 | 0.00 | 0.00 | 94 | 1008.2 |
| 20260506104351 | 7 | 3 | 0.0 | 9.7 | 0.10 | 0.00 | 0.00 | 94 | 1008.2 |
| 20260506103906 | 7 | 359 | 0.0 | 6.4 | 0.10 | 0.00 | 0.00 | 94 | 1008.1 |
| 20260506103416 | 7 | 8 | 0.0 | 11.3 | 0.10 | 0.00 | 0.00 | 94 | 1008.2 |
| 20260506102941 | 8 | 348 | 0.0 | 25.7 | 0.10 | 0.00 | 0.00 | 94 | 1008.1 |
| 20260506102516 | 8 | 336 | 0.0 | 12.9 | 0.10 | 0.00 | 0.00 | 94 | 1007.9 |
| 20260506102101 | 8 | 336 | 0.0 | 12.9 | 0.10 | 0.00 | 0.00 | 94 | 1007.9 |
| 20260506101641 | 8 | 359 | 0.0 | 12.9 | 0.10 | 0.00 | 0.00 | 94 | 1007.8 |
| 20260506101211 | 7 | 354 | 0.0 | 11.3 | 0.13 | 0.00 | 0.00 | 94 | 1007.8 |
| 20260506100716 | 7 | 14 | 0.0 | 11.3 | 0.15 | 0.00 | 0.00 | 94 | 1007.8 |
| 20260506100236 | 7 | 38 | 0.0 | 4.8 | 0.18 | 0.00 | 0.00 | 94 | 1007.9 |
| 20260506095751 | 7 | 359 | 0.0 | 6.4 | 0.20 | 0.00 | 0.00 | 94 | 1007.7 |
| 20260506095331 | 7 | 1 | 0.0 | 11.3 | 0.18 | 0.00 | 0.00 | 94 | 1007.9 |
| 20260506094856 | 7 | 348 | 0.0 | 9.7 | 0.10 | 0.00 | 0.00 | 94 | 1007.8 |
| 20260506094433 | 7 | 334 | 0.0 | 9.7 | 0.08 | 0.00 | 0.00 | 94 | 1007.9 |
| 20260506094006 | 7 | 19 | 0.0 | 11.3 | 0.05 | 0.00 | 0.00 | 94 | 1007.8 |
| 20260506093521 | 7 | 357 | 0.0 | 11.3 | 0.05 | 0.00 | 0.00 | 94 | 1007.8 |
| 20260506093033 | 7 | 357 | 0.0 | 11.3 | 0.05 | 0.00 | 0.00 | 94 | 1007.8 |
| 20260506092616 | 7 | 218 | 0.0 | 3.2 | 0.03 | 0.00 | 0.00 | 94 | 1007.7 |
| 20260506092151 | 7 | 315 | 0.0 | 4.8 | 0.00 | 0.00 | 0.00 | 94 | 1007.7 |
| 20260506091736 | 7 | 284 | 0.0 | 4.8 | 0.00 | 0.00 | 0.00 | 94 | 1007.7 |
| 20260506091326 | 7 | 256 | 0.0 | 4.8 | 0.00 | 0.00 | 0.00 | 94 | 1007.6 |
| 20260506090846 | 7 | 279 | 0.0 | 11.3 | 0.00 | 0.00 | 0.00 | 94 | 1007.4 |
| 20260506090426 | 6 | 327 | 0.0 | 16.1 | 0.03 | 0.00 | 0.00 | 94 | 1007.4 |
| 20260506085951 | 6 | 322 | 0.0 | 16.1 | 0.05 | 0.00 | 0.00 | 94 | 1007.3 |
| 20260506085510 | 6 | 9 | 0.0 | 12.9 | 0.05 | 0.00 | 0.00 | 94 | 1007.2 |
| 20260506085041 | 6 | 360 | 0.0 | 11.3 | 0.03 | 0.00 | 0.00 | 94 | 1007.3 |
| 20260506084621 | 6 | 360 | 0.0 | 11.3 | 0.03 | 0.00 | 0.00 | 94 | 1007.3 |
| 20260506084151 | 6 | 251 | 0.0 | 9.7 | 0.00 | 0.00 | 0.00 | 94 | 1007.3 |
| 20260506083721 | 6 | 332 | 0.0 | 12.9 | 0.00 | 0.00 | 0.00 | 94 | 1007.2 |
| 20260506083251 | 7 | 351 | 0.0 | 12.9 | 0.00 | 0.00 | 0.00 | 94 | 1007.2 |
| 20260506082826 | 7 | 348 | 0.0 | 6.4 | 0.00 | 0.00 | 0.00 | 94 | 1007.2 |
| 20260506082416 | 7 | 56 | 0.0 | 11.3 | 0.00 | 0.00 | 0.00 | 94 | 1007.1 |
| 20260506081951 | 7 | 329 | 0.0 | 12.9 | 0.00 | 0.00 | 0.00 | 94 | 1007.1 |
| 20260506081513 | 7 | 337 | 0.0 | 14.5 | 0.00 | 0.00 | 0.00 | 94 | 1007.0 |
| 20260506081031 | 7 | 337 | 0.0 | 14.5 | 0.00 | 0.00 | 0.00 | 94 | 1007.0 |
| 20260506080600 | 7 | 2 | 0.0 | 11.3 | 0.00 | 0.00 | 0.00 | 94 | 1007.0 |
| 20260506080136 | 7 | 2 | 0.0 | 11.3 | 0.00 | 0.00 | 0.00 | 94 | 1007.0 |
| 20260506073426 | 7 | 4 | 0.0 | 12.9 | 0.00 | 0.00 | 0.00 | 94 | 1007.0 |
| 20260506073000 | 7 | 358 | 0.0 | 14.5 | 0.00 | 0.00 | 0.00 | 94 | 1007.0 |
| 20260506072501 | 7 | 353 | 0.0 | 14.5 | 0.00 | 0.00 | 0.00 | 94 | 1007.0 |
| 20260506072021 | 7 | 353 | 0.0 | 14.5 | 0.00 | 0.00 | 0.00 | 94 | 1007.0 |
| 20260506071601 | 8 | 254 | 0.0 | 16.1 | 0.05 | 0.00 | 0.00 | 94 | 1007.0 |
| 20260506071121 | 8 | 254 | 0.0 | 16.1 | 0.05 | 0.00 | 0.00 | 94 | 1007.0 |
| 20260506070631 | 8 | 227 | 0.0 | 9.7 | 0.03 | 0.00 | 0.00 | 94 | 1006.8 |
| 20260506070203 | 8 | 137 | 0.0 | 11.3 | 0.00 | 0.00 | 0.00 | 94 | 1006.9 |
| 20260506062116 | 8 | 360 | 0.0 | 14.5 | 0.08 | 0.00 | 0.00 | 94 | 1006.3 |
| 20260506061651 | 8 | 47 | 0.0 | 12.9 | 0.08 | 0.00 | 0.00 | 94 | 1006.4 |
| 20260506061236 | 8 | 16 | 0.0 | 12.9 | 0.10 | 0.00 | 0.00 | 94 | 1006.4 |
| 20260506060806 | 8 | 39 | 0.0 | 12.9 | 0.13 | 0.00 | 0.00 | 94 | 1006.3 |
| 20260506060336 | 8 | 324 | 0.0 | 14.5 | 0.18 | 0.00 | 0.00 | 94 | 1006.2 |
| 20260506051326 | 8 | 15 | 0.0 | 14.5 | 0.10 | 0.00 | 0.00 | 94 | 1006.3 |
| 20260506050856 | 8 | 21 | 0.0 | 20.9 | 0.08 | 0.00 | 0.00 | 94 | 1006.2 |
| 20260506050436 | 8 | 357 | 0.0 | 6.4 | 0.05 | 0.00 | 0.00 | 94 | 1006.2 |
| 20260506045116 | 8 | 22 | 0.0 | 11.3 | 0.05 | 0.00 | 0.00 | 94 | 1006.3 |
| 20260506044656 | 8 | 64 | 0.0 | 16.1 | 0.08 | 0.00 | 0.00 | 94 | 1006.2 |
| 20260506044221 | 8 | 23 | 0.0 | 16.1 | 0.05 | 0.00 | 0.00 | 94 | 1006.2 |
| 20260506043736 | 8 | 66 | 0.0 | 14.5 | 0.08 | 0.00 | 0.00 | 94 | 1006.2 |
| 20260506043305 | 8 | 7 | 0.0 | 9.7 | 0.08 | 0.00 | 0.00 | 94 | 1006.2 |
| 20260506042831 | 8 | 60 | 0.0 | 12.9 | 0.08 | 0.00 | 0.00 | 94 | 1006.2 |
| 20260506042401 | 8 | 342 | 0.0 | 11.3 | 0.10 | 0.00 | 0.00 | 94 | 1006.1 |
| 20260506041926 | 8 | 63 | 0.0 | 11.3 | 0.10 | 0.00 | 0.00 | 94 | 1006.2 |
| 20260506041511 | 8 | 15 | 0.0 | 14.5 | 0.10 | 0.00 | 0.00 | 94 | 1006.2 |
| 20260506041016 | 8 | 12 | 0.0 | 14.5 | 0.10 | 0.00 | 0.00 | 94 | 1006.1 |
| 20260506040541 | 8 | 25 | 0.0 | 20.9 | 0.10 | 0.00 | 0.00 | 94 | 1006.2 |
| 20260506040106 | 8 | 25 | 0.0 | 20.9 | 0.10 | 0.00 | 0.00 | 94 | 1006.2 |
| 20260506035631 | 8 | 29 | 0.0 | 14.5 | 0.10 | 0.00 | 0.00 | 94 | 1006.2 |
| 20260506035156 | 8 | 15 | 0.0 | 12.9 | 0.10 | 0.00 | 0.00 | 94 | 1006.3 |
| 20260506034724 | 8 | 356 | 0.0 | 20.9 | 0.10 | 0.00 | 0.00 | 94 | 1006.2 |
| 20260506034256 | 8 | 23 | 0.0 | 14.5 | 0.10 | 0.00 | 0.00 | 94 | 1006.3 |
| 20260506033841 | 8 | 22 | 0.0 | 14.5 | 0.13 | 0.00 | 0.00 | 94 | 1006.3 |
| 20260506033411 | 8 | 41 | 0.0 | 14.5 | 0.13 | 0.00 | 0.00 | 94 | 1006.3 |
| 20260506032946 | 8 | 39 | 0.0 | 20.9 | 0.15 | 0.00 | 0.00 | 94 | 1006.3 |
| 20260506032526 | 8 | 360 | 0.0 | 17.7 | 0.15 | 0.00 | 0.00 | 94 | 1006.3 |
| 20260506032036 | 8 | 360 | 0.0 | 17.7 | 0.15 | 0.00 | 0.00 | 94 | 1006.3 |
| 20260506031606 | 8 | 3 | 0.0 | 20.9 | 0.20 | 0.00 | 0.00 | 94 | 1006.3 |
| 20260506031121 | 8 | 6 | 0.0 | 16.1 | 0.23 | 0.00 | 0.00 | 94 | 1006.3 |
| 20260506030716 | 8 | 13 | 0.0 | 14.5 | 0.25 | 0.00 | 0.00 | 94 | 1006.5 |
| 20260506030253 | 8 | 1 | 0.0 | 17.7 | 0.20 | 0.00 | 0.00 | 94 | 1006.5 |
| 20260506025806 | 8 | 15 | 0.0 | 22.5 | 0.18 | 0.00 | 0.00 | 94 | 1006.5 |
| 20260506025328 | 8 | 52 | 0.0 | 24.1 | 0.18 | 0.00 | 0.00 | 94 | 1006.6 |
| 20260506024912 | 8 | 356 | 0.0 | 17.7 | 0.20 | 0.00 | 0.00 | 94 | 1006.7 |
| 20260506024456 | 9 | 2 | 0.0 | 17.7 | 0.25 | 0.00 | 0.00 | 94 | 1006.6 |
| 20260506024021 | 9 | 19 | 0.0 | 22.5 | 0.28 | 0.00 | 0.00 | 94 | 1006.7 |
| 20260506023602 | 9 | 19 | 0.0 | 22.5 | 0.28 | 0.00 | 0.00 | 94 | 1006.7 |
| 20260506023151 | 9 | 349 | 0.0 | 22.5 | 0.28 | 0.00 | 0.00 | 94 | 1006.7 |
| 20260506022726 | 9 | 8 | 0.0 | 17.7 | 0.28 | 0.00 | 0.00 | 93 | 1006.7 |
| 20260506022256 | 9 | 29 | 0.0 | 16.1 | 0.25 | 0.00 | 0.00 | 93 | 1006.7 |
| 20260506021811 | 9 | 24 | 0.0 | 17.7 | 0.25 | 0.00 | 0.00 | 93 | 1006.8 |
| 20260506021316 | 9 | 356 | 0.0 | 14.5 | 0.20 | 0.00 | 0.00 | 93 | 1006.9 |
| 20260506020911 | 9 | 16 | 0.0 | 12.9 | 0.18 | 0.00 | 0.00 | 93 | 1006.9 |
| 20260506020416 | 9 | 356 | 0.0 | 11.3 | 0.18 | 0.00 | 0.00 | 93 | 1007.0 |
| 20260506015940 | 9 | 18 | 0.0 | 17.7 | 0.18 | 0.00 | 0.00 | 93 | 1007.0 |
| 20260506015526 | 9 | 15 | 0.0 | 20.9 | 0.20 | 0.00 | 0.00 | 93 | 1007.0 |
| 20260506015056 | 9 | 15 | 0.0 | 20.9 | 0.20 | 0.00 | 0.00 | 93 | 1007.0 |
| 20260506014626 | 9 | 359 | 0.0 | 20.9 | 0.20 | 0.00 | 0.00 | 93 | 1007.0 |
| 20260506014201 | 9 | 35 | 0.0 | 22.5 | 0.20 | 0.00 | 0.00 | 93 | 1007.1 |
| 20260506013733 | 9 | 45 | 0.0 | 22.5 | 0.20 | 0.00 | 0.00 | 93 | 1007.2 |
| 20260506013311 | 9 | 35 | 0.0 | 16.1 | 0.20 | 0.00 | 0.00 | 93 | 1007.1 |
| 20260506012821 | 9 | 25 | 0.0 | 16.1 | 0.20 | 0.00 | 0.00 | 93 | 1007.1 |
| 20260506012356 | 9 | 355 | 0.0 | 12.9 | 0.18 | 0.00 | 0.00 | 93 | 1007.2 |
| 20260506011922 | 9 | 3 | 0.0 | 12.9 | 0.20 | 0.00 | 0.00 | 93 | 1007.1 |
| 20260506011501 | 9 | 343 | 0.0 | 14.5 | 0.20 | 0.00 | 0.00 | 93 | 1007.2 |
| 20260506011041 | 10 | 359 | 0.0 | 14.5 | 0.20 | 0.00 | 0.00 | 93 | 1007.2 |
| 20260506010543 | 10 | 358 | 0.0 | 22.5 | 0.18 | 0.00 | 0.00 | 93 | 1007.2 |
| 20260506010106 | 10 | 358 | 0.0 | 22.5 | 0.18 | 0.00 | 0.00 | 93 | 1007.2 |
| 20260506005656 | 10 | 4 | 0.0 | 20.9 | 0.15 | 0.00 | 0.00 | 93 | 1007.3 |
| 20260506005211 | 10 | 13 | 0.0 | 12.9 | 0.15 | 0.00 | 0.00 | 93 | 1007.4 |
| 20260506004746 | 10 | 2 | 0.0 | 14.5 | 0.15 | 0.00 | 0.00 | 93 | 1007.4 |
| 20260506004256 | 10 | 4 | 0.0 | 17.7 | 0.18 | 0.00 | 0.00 | 93 | 1007.3 |
| 20260506003836 | 10 | 31 | 0.0 | 17.7 | 0.20 | 0.00 | 0.00 | 93 | 1007.4 |
| 20260506003406 | 10 | 25 | 0.0 | 9.7 | 0.20 | 0.00 | 0.00 | 93 | 1007.4 |
| 20260506002953 | 10 | 2 | 0.0 | 14.5 | 0.25 | 0.00 | 0.00 | 93 | 1007.5 |
| 20260506002516 | 10 | 11 | 0.0 | 16.1 | 0.30 | 0.00 | 0.00 | 93 | 1007.6 |
| 20260506002053 | 10 | 72 | 0.0 | 12.9 | 0.30 | 0.00 | 0.00 | 93 | 1007.7 |
| 20260506001156 | 10 | 38 | 0.0 | 12.9 | 0.28 | 0.00 | 0.00 | 93 | 1007.7 |
| 20260506000716 | 10 | 7 | 0.0 | 11.3 | 0.25 | 0.00 | 0.00 | 92 | 1007.9 |
| 20260506000241 | 10 | 37 | 0.0 | 6.4 | 0.23 | 0.00 | 0.00 | 92 | 1007.9 |
| 20260505235759 | 10 | 21 | 0.0 | 11.3 | 0.25 | 0.00 | 0.00 | 92 | 1008.0 |
| 20260505235331 | 10 | 85 | 0.0 | 9.7 | 0.25 | 0.00 | 0.00 | 92 | 1008.1 |
| 20260505234921 | 10 | 29 | 0.0 | 11.3 | 0.28 | 0.00 | 0.00 | 92 | 1008.1 |
| 20260505234456 | 10 | 26 | 0.0 | 9.7 | 0.28 | 0.00 | 0.00 | 92 | 1008.1 |
| 20260505234021 | 10 | 341 | 0.0 | 12.9 | 0.28 | 0.00 | 0.00 | 92 | 1008.1 |
| 20260505233551 | 10 | 38 | 0.0 | 17.7 | 0.25 | 0.00 | 0.00 | 92 | 1008.1 |
| 20260505233116 | 10 | 38 | 0.0 | 17.7 | 0.25 | 0.00 | 0.00 | 92 | 1008.1 |
| 20260505232656 | 10 | 36 | 0.0 | 20.9 | 0.20 | 0.00 | 0.00 | 92 | 1008.1 |
| 20260505232226 | 10 | 8 | 0.0 | 22.5 | 0.20 | 0.00 | 0.00 | 92 | 1008.2 |
| 20260505231746 | 10 | 340 | 0.0 | 22.5 | 0.20 | 0.00 | 0.00 | 92 | 1008.2 |
| 20260505231316 | 10 | 12 | 0.0 | 11.3 | 0.20 | 0.00 | 0.00 | 92 | 1008.2 |
| 20260505230901 | 10 | 43 | 0.0 | 17.7 | 0.20 | 0.00 | 0.00 | 92 | 1008.2 |
| 20260505230431 | 10 | 45 | 0.0 | 11.3 | 0.20 | 0.00 | 0.00 | 92 | 1008.2 |
| 20260505225946 | 10 | 60 | 0.0 | 14.5 | 0.23 | 0.00 | 0.00 | 92 | 1008.2 |
| 20260505225511 | 10 | 5 | 0.0 | 14.5 | 0.23 | 0.00 | 0.00 | 92 | 1008.3 |
| 20260505225036 | 10 | 5 | 0.0 | 14.5 | 0.23 | 0.00 | 0.00 | 92 | 1008.3 |
| 20260505224556 | 10 | 25 | 0.0 | 22.5 | 0.20 | 0.00 | 0.00 | 92 | 1008.3 |
| 20260505224136 | 10 | 25 | 0.0 | 22.5 | 0.20 | 0.00 | 0.00 | 92 | 1008.3 |
| 20260505223706 | 10 | 36 | 0.0 | 12.9 | 0.20 | 0.00 | 0.00 | 92 | 1008.3 |
| 20260505223246 | 10 | 22 | 0.0 | 14.5 | 0.18 | 0.00 | 0.00 | 92 | 1008.3 |
| 20260505222751 | 10 | 10 | 0.0 | 17.7 | 0.20 | 0.00 | 0.00 | 92 | 1008.4 |
| 20260505222326 | 10 | 44 | 0.0 | 20.9 | 0.18 | 0.00 | 0.00 | 91 | 1008.5 |
| 20260505221911 | 10 | 358 | 0.0 | 20.9 | 0.18 | 0.00 | 0.00 | 91 | 1008.4 |